Regional Weather Roundup
Issued by NWS

Home | Current Version | Previous Version | Text Only | Print | Product List | Glossary Off
Versions: 1 2 3 4 5 6 7 8 9 10 11 12 13 14 15 16 17 18 19 20 21 22 23 24 25 26 27 28 29 30 31 32 33 34 35 36 37 38 39 40 41 42 43 44 45 46 47 48 49 50

746
ASUS44 KJAN 280310
RWRMS

MISSISSIPPI HOURLY WEATHER ROUNDUP
NATIONAL WEATHER SERVICE JACKSON MS
1000 PM CDT SUN JUL 27 2014

NOTE: "FAIR: INDICATES FEW OR NO CLOUDS BELOW 12,000 FEET WITH NO
SIGNIFICANT WEATHER AND/OR OBSTRUCTIONS TO VISIBILITY.

MSZ001>002-007>008-010>013-018>021-025>028-034>036-280400-
NORTHWEST MISSISSIPPI

CITY           SKY/WX    TMP DP  RH WIND       PRES   REMARKS
CLARKSDALE     FAIR      84  79  84 CALM      29.96S HX  96
CLEVELAND      FAIR      82  79  90 SW7       29.97S HX  92
GREENWOOD      PTCLDY    79  77  94 S3        29.98R
GREENVILLE     CLEAR     84  74  71 SW5       29.98R HX  91
GRENADA        FAIR      81  75  83 CALM      29.98S
OLIVE BRANCH   PTCLDY    82  82 100 SW7       29.95R HX  97
OXFORD         FAIR      82  75  78 SW7       29.98R
TUNICA         PTCLDY    82  77  83 SW3       29.95S HX  91
$$

MSZ003>006-009-014>017-022>024-029>033-037>039-280400-
NORTHEAST MISSISSIPPI

CITY           SKY/WX    TMP DP  RH WIND       PRES   REMARKS
BELMONT        FAIR      80  76  87 SW3       29.97R
COLUMBUS AFB   PTCLDY    80  75  83 SW6       29.98R
CORINTH        FAIR      82  75  78 SW6       29.94S
GOLDN TRIANGLE MOCLDY    84  73  70 S3        29.99S HX  91
STARKVILLE     FAIR      79  73  83 CALM      29.99R
TUPELO         CLEAR     83  76  79 SW5       29.96R HX  91
$$

MSZ040-058-280400-
CENTRAL MISSISSIPPI

CITY           SKY/WX    TMP DP  RH WIND       PRES   REMARKS
JACKSON INTL   CLEAR     82  75  79 S5        30.02R
JACKSON HAWKNS CLEAR     83  74  74 SW3       30.03R
MERIDIAN KEY   PTCLDY    83  73  72 SW5       30.02R
MERIDIAN NAS   PTCLDY    82  73  74 SW6       30.01R
RAYMOND        FAIR      81  75  83 CALM      30.02R
VICKSBURG      CLEAR     80  76  87 S3        30.01R
$$

MSZ059>079-280400-
SOUTH MISSISSIPPI

CITY           SKY/WX    TMP DP  RH WIND       PRES   REMARKS
BROOKHAVEN     FAIR      79  75  89 CALM      30.06S
COLUMBIA       FAIR      79  77  94 CALM      30.03S
HATTIESBURG    MOCLDY    85  76  74 W3        30.04R HX  94
MCCOMB         PTCLDY    80  75  84 CALM      30.05R
NATCHEZ        CLEAR     81  75  83 S5        30.04R
PINE BELT      PTCLDY    81  73  78 CALM      30.05S
$$

MSZ080>082-280400-
COASTAL MISSISSIPPI

CITY           SKY/WX    TMP DP  RH WIND       PRES   REMARKS
BILOXI         CLEAR     85  78  79 SW9       30.04R HX  97
PASCAGOULA     CLEAR     83  78  85 SW3       30.04R HX  93
GULFPORT       CLEAR     87  76  69 SW3       30.04R HX  97
$$



USA.gov is the U.S. government's official web portal to all federal, state and local government web resources and services.